Mobile, AL

1:22 PM CDT on June 20, 2019 (GMT -0500)
Mobile Regional

Weather History for KMOB - May, 2019

Change the Weather History Date:

Sunday, May 19, 2019

  Actual Average Record
Temperature  
Mean Temperature 76 °F 75 °F  
Max Temperature 83 °F 85 °F 98 °F (1962)
Min Temperature 69 °F 65 °F 48 °F (2002)
Cooling Degree Days 11 10  
Month to date cooling degree days 189 150  
Year to date cooling degree days 426 309  
Growing Degree Days 26 (Base 50)    
Moisture  
Dew Point 70 °F    
Average Humidity 83    
Maximum Humidity 97    
Minimum Humidity 69    
Precipitation  
Precipitation 0.05 in 0.17 in 4.71 in (1932)
Month to date precipitation 3.86 3.07  
Year to date precipitation 21.28 24.77  
Sea Level Pressure  
Sea Level Pressure 29.99 in    
Wind  
Wind Speed 5 mph (South)    
Max Wind Speed 17 mph    
Max Gust Speed 25 mph    
Visibility 9 miles    
Events Rain , Thunderstorm    
T = Trace of Precipitation, MM = Missing Value Source: NWS Daily Summary

Daily Weather History Graph

Daily Weather History Graph

Search for Another Location

Airport or City:

Astronomy

May. 19, 2019 Rise Set
Actual Time 5:55 AM CDT 7:43 PM CDT
Civil Twilight 5:29 AM CDT 8:09 PM CDT
Nautical Twilight 4:57 AM CDT 8:42 PM CDT
Astronomical Twilight 4:23 AM CDT 9:16 PM CDT
Moon 8:43 PM CDT (5/19) 6:39 AM CDT (5/19)
Length of Visible Light 14h 40m
Length of Day
13h 47m
Full, 99% of the Moon is Illuminated
May 19
Full
May 26
Last Quarter
Jun 3
New
Jun 10
First Quarter
Jun 17
Full

Hourly Weather History & Observations

Time (CDT) Temp. Heat Index Dew Point Humidity Pressure Visibility Wind Dir Wind Speed Gust Speed Precip Events Conditions
12:56 AM 73.9 °F - 71.1 °F 91% 29.96 in 10.0 mi SSE 6.9 mph - N/A   Clear
1:56 AM 73.0 °F - 70.0 °F 90% 29.94 in 10.0 mi SSE 6.9 mph - N/A   Clear
2:56 AM 73.0 °F - 70.0 °F 90% 29.94 in 10.0 mi SSE 5.8 mph - N/A   Clear
3:56 AM 72.0 °F - 70.0 °F 93% 29.95 in 10.0 mi SSE 4.6 mph - N/A   Clear
4:56 AM 71.1 °F - 70.0 °F 96% 29.95 in 10.0 mi SE 6.9 mph - N/A   Clear
5:56 AM 72.0 °F - 70.0 °F 93% 29.95 in 7.0 mi SE 8.1 mph - N/A   Scattered Clouds
6:56 AM 73.0 °F - 71.1 °F 93% 29.99 in 10.0 mi SSE 4.6 mph - N/A   Mostly Cloudy
7:56 AM 78.1 °F - 73.0 °F 84% 29.98 in 10.0 mi SE 10.4 mph - N/A   Scattered Clouds
8:56 AM 80.1 °F 83.6 °F 71.1 °F 74% 29.98 in 10.0 mi SSE 10.4 mph - N/A   Mostly Cloudy
9:56 AM 81.0 °F 84.9 °F 71.1 °F 72% 30.01 in 10.0 mi South 10.4 mph - N/A   Mostly Cloudy
10:56 AM 82.0 °F 86.3 °F 71.1 °F 69% 30.01 in 10.0 mi SSE 10.4 mph - N/A   Overcast
11:12 AM 82.0 °F 85.9 °F 70.0 °F 67% 30.03 in 10.0 mi South 10.4 mph - N/A   Overcast
11:56 AM 82.9 °F 87.5 °F 71.1 °F 67% 30.03 in 10.0 mi SW 11.5 mph - N/A   Overcast
12:56 PM 82.0 °F 86.3 °F 71.1 °F 69% 30.04 in 10.0 mi South 12.7 mph - N/A   Overcast
1:15 PM 82.0 °F 86.3 °F 71.1 °F 69% 30.03 in 10.0 mi SSW 11.5 mph - N/A Thunderstorm Overcast
1:32 PM 78.1 °F - 66.9 °F 68% 30.05 in 10.0 mi WSW 13.8 mph 25.3 mph N/A   Overcast
1:36 PM 75.0 °F - 66.9 °F 76% 30.04 in 4.0 mi SW 13.8 mph 25.3 mph 0.00 in Rain Light Rain
1:44 PM 71.1 °F - 66.9 °F 87% 30.04 in 4.0 mi Variable 5.8 mph 18.4 mph 0.05 in Rain Light Rain
1:56 PM 72.0 °F - 68.0 °F 87% 30.02 in 4.0 mi South 6.9 mph - 0.05 in Rain Light Rain
2:56 PM 73.0 °F - 66.9 °F 81% 30.01 in 7.0 mi Variable 3.5 mph - 0.00 in   Overcast
3:06 PM - - - N/A% - - North - - N/A   Unknown
3:56 PM 75.9 °F - 69.1 °F 79% 30.00 in 7.0 mi West 4.6 mph - N/A   Overcast
4:56 PM 77.0 °F - 69.1 °F 76% 29.99 in 7.0 mi SSW 6.9 mph - N/A   Scattered Clouds
5:56 PM 78.1 °F - 69.1 °F 74% 29.97 in 7.0 mi Calm Calm - N/A   Scattered Clouds
6:56 PM 77.0 °F - 69.1 °F 76% 29.97 in 7.0 mi Calm Calm - N/A   Scattered Clouds
7:56 PM 73.9 °F - 68.0 °F 82% 29.98 in 10.0 mi NE 3.5 mph - N/A   Clear
8:56 PM 72.0 °F - 69.1 °F 91% 29.98 in 10.0 mi Calm Calm - N/A   Clear
9:56 PM 71.1 °F - 68.0 °F 90% 29.99 in 10.0 mi Calm Calm - N/A   Clear
10:56 PM 70.0 °F - 68.0 °F 93% 30.01 in 10.0 mi Calm Calm - N/A   Partly Cloudy
11:56 PM 70.0 °F - 68.0 °F 93% 30.01 in 10.0 mi Calm Calm - N/A   Clear